सभी
Dimmit County Airport (Carrizo Springs, TX) CZT मौसम
|
Carrizo Springs, TX (KCZT)
स्वच्छ आकाश
हल्की हवाएं |
|
29 °C |
There is no TAF data available at CZT or any nearby airports.
Recent CZT METAR history
| Date | Time (CDT) | Flight Rules | Wind Dir. | Speed | Type | Height AGL (ft) | Visibility | Temp (°C) | Temp (°F) | Dew Point (°C) | Dew Point (°F) | Rel. Humid. | Pressure | Density Altitude | Remarks |
|---|---|---|---|---|---|---|---|---|---|---|---|---|---|---|---|
| 04-मई | 15:35 | VFR | 170° | 9 kt | 10 miles | 29° | 84° | 17° | 62° | 48% | 29.87 in Hg | 2,328 ft | Wind gusting to 16 KT | ||
| 04-मई | 14:55 | VFR | 160° | 11 kt | 10 miles | 28° | 82° | 17° | 62° | 51% | 29.88 in Hg | 2,198 ft | Wind gusting to 14 KT | ||
| 04-मई | 14:15 | VFR | 170° | 8 kt | 10 miles | 27° | 80° | 17° | 62° | 54% | 29.90 in Hg | 2,058 ft | Wind gusting to 15 KT | ||
| 04-मई | 13:55 | VFR | 150° | 10 kt | 10 miles | 27° | 80° | 17° | 62° | 54% | 29.90 in Hg | 2,058 ft | Wind gusting to 17 KT | ||
| 04-मई | 13:35 | VFR | 170° | 10 kt | 10 miles | 27° | 80° | 17° | 62° | 54% | 29.91 in Hg | 2,048 ft | Wind gusting to 15 KT | ||
| 04-मई | 13:15 | VFR | 190° | 11 kt | 10 miles | 27° | 80° | 17° | 62° | 54% | 29.92 in Hg | 2,038 ft | Wind gusting to 16 KT | ||
| 04-मई | 12:55 | VFR | 160° | 12 kt | 10 miles | 26° | 78° | 17° | 62° | 58% | 29.92 in Hg | 1,918 ft | Wind gusting to 17 KT | ||
| 04-मई | 12:15 | VFR | 170° | 11 kt | 10 miles | 26° | 78° | 17° | 62° | 58% | 29.94 in Hg | 1,898 ft | Wind gusting to 17 KT | ||
| 04-मई | 11:55 | VFR | 170° | 11 kt | 10 miles | 26° | 78° | 17° | 62° | 58% | 29.94 in Hg | 1,898 ft | Wind gusting to 18 KT | ||
| 04-मई | 11:15 | VFR | 160° | 11 kt | 10 miles | 25° | 77° | 17° | 62° | 61% | 29.94 in Hg | 1,778 ft | Wind gusting to 15 KT | ||
| 04-मई | 10:55 | VFR | 190° | 10 kt | 10 miles | 24° | 75° | 17° | 62° | 65% | 29.96 in Hg | 1,638 ft | |||
| 04-मई | 10:15 | VFR | 160° | 12 kt | 10 miles | 23° | 73° | 17° | 62° | 69% | 29.95 in Hg | 1,528 ft | Wind gusting to 17 KT | ||
| 04-मई | 09:55 | VFR | 180° | 11 kt | 10 miles | 22° | 71° | 17° | 62° | 73% | 29.97 in Hg | 1,388 ft | Wind gusting to 16 KT | ||
| 04-मई | 09:35 | VFR | 170° | 11 kt | 10 miles | 22° | 71° | 18° | 64° | 78% | 29.96 in Hg | 1,398 ft | Wind gusting to 14 KT | ||
| 04-मई | 09:15 | VFR | 160° | 8 kt | 10 miles | 21° | 69° | 18° | 64° | 83% | 29.96 in Hg | 1,278 ft | |||
| 04-मई | 08:55 | VFR | 170° | 9 kt | 10 miles | 20° | 68° | 18° | 64° | 88% | 29.96 in Hg | 1,158 ft | |||
| 04-मई | 08:35 | VFR | 140° | 6 kt | 10 miles | 20° | 68° | 18° | 64° | 88% | 29.97 in Hg | 1,148 ft | |||
| 04-मई | 08:15 | VFR | 140° | 3 kt | 10 miles | 18° | 64° | 18° | 64° | 100% | 29.97 in Hg | 908 ft | |||
| 04-मई | 07:55 | VFR | 150° | 4 kt | 10 miles | 17° | 62° | 17° | 62° | 100% | 29.96 in Hg | 798 ft | |||
| 04-मई | 07:35 | VFR | Calm | 10 miles | 17° | 62° | 17° | 62° | 100% | 29.95 in Hg | 808 ft | ||||
| 04-मई | 07:15 | VFR | 130° | 3 kt | 10 miles | 17° | 62° | 17° | 62° | 100% | 29.95 in Hg | 808 ft | |||
| 04-मई | 06:55 | VFR | 160° | 5 kt | 10 miles | 17° | 62° | 17° | 62° | 100% | 29.95 in Hg | 808 ft | |||
| 04-मई | 06:35 | VFR | Calm | 10 miles | 17° | 62° | 17° | 62° | 100% | 29.95 in Hg | 808 ft | ||||
| 04-मई | 06:15 | VFR | 140° | 3 kt | 10 miles | 17° | 62° | 17° | 62° | 100% | 29.96 in Hg | 798 ft |
लॉगिन
| Your browser is unsupported. अपना ब्राऊजर अपग्रेड करें |
